Welcome to the New NWS' Forecast!
Most changes are behind the scenes, but click here for differences you might notice.

Regional Weather Roundup (RWR)

Issued by Newport/Morehead City, NC (MHX)

                            
000
ASUS42 KMHX 200013
RWRMHX
WEATHER ROUNDUP FOR EASTERN NORTH CAROLINA
NATIONAL WEATHER SERVICE NEWPORT/MOREHEAD CITY NC
700 PM EST MON NOV 19 2018

NOTE: "FAIR" INDICATES FEW OR NO CLOUDS BELOW 12,000 FEET
WITH NO SIGNIFICANT WEATHER AND/OR OBSTRUCTIONS TO VISIBILITY

NCZ015>017-031-032-045>047-102-103-200100-
NORTH COAST
  
CITY           SKY/WX    TMP DP  RH WIND       PRES   REMARKS
EDENTON        FOG       55  55  99 SW5       30.04F VSB 1/4          
ELIZABETH CITY FOG       52  51  97 SW3       30.03S VSB 1/4          
KITTY HAWK     FOG       52  52 100 CALM      30.01S VSB 1/4          
MANTEO         MOCLDY    52  52  99 CALM      30.03F FOG              

$$

NCZ045>047-081-094-103-104-200100-
CENTRAL COAST
  
CITY           SKY/WX    TMP DP  RH WIND       PRES   REMARKS
FRISCO         CLOUDY    57  55  93 VRB6      30.03R                  

$$

NCZ095-097-098-100-101-200100-
SOUTHERN COAST
  
CITY           SKY/WX    TMP DP  RH WIND       PRES   REMARKS
BEAUFORT       FOG       54  54 100 NW5       30.05R VSB 1/2          
CEDAR ISLAND   NOT AVBL                                               
JACKSONVILLE   CLOUDY    59  57  93 W3        30.05S                  
PINEY ISLAND   NOT AVBL                                               
WILMINGTON     FAIR      53  51  93 CALM      30.06R                  


$$

NCZ011>013-027>030-043-044-078>080-089-090>093-098-200100-
COASTAL PLAIN
  
CITY           SKY/WX    TMP DP  RH WIND       PRES   REMARKS
AHOSKIE        CLOUDY    53  52  98 CALM      30.04S                  
CLINTON          N/A     54  54 100 CALM      30.05S                  
ELIZABETHTOWN  FAIR      55  54  96 S5        30.06R                  
GOLDSBORO      FAIR      53  52  95 SE3       30.03R FOG              
GREENVILLE     CLOUDY    54  54 100 SW6       30.06S                  
HAVELOCK       CLOUDY    56  56 100 W5        30.06R                  
KENANSVILLE    FOG       54 N/A N/A S3        30.06S VSB<1/4          
KINSTON        CLOUDY    55  55 100 S5        30.06S                  
NEW BERN       CLOUDY    54  54 100 CALM      30.06S                  
RICHLANDS      CLOUDY    57  56  96 CALM      30.06S                  
ROCKY MOUNT    FOG       49  49 100 S3        30.05R VSB 1/4          
WASHINGTON     FOG       54  53  97 SW5       30.05S VSB 1/4          
WHITEVILLE     FAIR      55  55  97 CALM      30.05S                  

$$

AMZ130-135-150-152-154-156-158-170-250-252-270-ANZ085-086-088-633-658-670-200100-
MARINE OBSERVATIONS
  
STATION/POSITION TIME  TEMP    WIND        PRES    WAVE   SWELL
                       AIR SEA DIR/SP/G            HT/PER HT/PER
                 (UTC) (F)     (DEG/KT/KT) (MB)    (FT/S) (FT/S)
CHESAPEAKE LIGHT NOT AVBL
64 E VA BEACH    2350   55 60   CALM  /  2 1017.0    2/10   2/10
DUCK             2348   53 57  140/  6/  7 1016.0
2 E DUCK         0000      54                N/A     2/17   2/17
OREGON INLET     2342   56 57   40/  3/  4 1016.5
13E OREGON INLT  2346      61                N/A     3/ 9   3/ 9
HATTERAS CG      2348   56 61  360/ 12/ 13 1016.5
DIAMOND BUOY     0000   63 81  350/ 14/ 17 1016.6
CAPE LOOKOUT     0000          340/  7/  9 1017.7
BEAUFORT LAB     2348   55 62  340/  4/  6 1017.7
30 SE NEW RVR IN 2308   63 74  340/  8/ 12 1016.2
30 SE NEW RVR IN 0000      74                N/A     4/10   2/11
27 SE WRIGHTSVLE 2308   62 72  310/  8/ 14 1017.6
5 SE WRIGHTSVLE  2308   62 65  330/  6/ 10 1017.4
225 S CAPE HAT   0000      77              1017.8
41 SE CHARLESTON 2350      78  290/  4/  6 1018.4    3/10   3/10

$$